Flag for United Kingdom Weather past 2 weeks in Hinckley, England, United Kingdom

Now
60 °F

Cool.


Feels Like: 60 °F
Forecast: 53 / 62 °F
Wind: 5 mph from Southwest

Location: Church Lawford

Current Time: Jul 7, 2015 at 10:02:52 AM

Latest Report: Jul 7, 2015 at 9:00 AM


Visibility: 16 mi

Pressure: 29.75 "Hg

Humidity: 94%

Dew point: 59 °F

Location of HinckleyLocation

Historic Weather in Hinckley — Graph

°F

Hinckley temperature yesterday

Maximum temperature yesterday: 66 °F (at 5:00 PM)
Minimum temperature yesterday: 47 °F (at 4:00 AM)
Average temperature yesterday: 59 °F

Past Weeks' High & Low Weather Summary

 TemperatureHumidityPressure
High90 °F (Jul 1, 4:00 PM)99% (Jul 3, 6:00 AM)30.31 "Hg (Jul 3, 6:00 AM)
Low46 °F (Jul 3, 5:00 AM)31% (Jun 30, 5:00 PM)29.76 "Hg (Jul 7, 8:00 AM)
Average63 °F72%30.05 "Hg
* Reported Jun 22 8:00 AM — Jul 7 8:00 AM, Hinckley, Weather by CustomWeather, © 2015

Note: Actual official high and low records may vary slightly from our data, if they occured in-between our weather recording intervals... More about our weather records

Advertising

Hinckley weather history for previous 24 hours

 ConditionsComfort  
Time TempWeatherWind HumidityBarometerVisibility
8:00 AM
Tue, Jul 7
60 °FCool.6 mph95%29.76 "Hg13 mi
7:00 AM60 °FCool.6 mph93%29.78 "Hg16 mi
6:00 AM61 °FCool.7 mph83%29.78 "Hg28 mi
5:00 AM60 °FCool.6 mph82%29.79 "Hg19 mi
3:00 AM60 °FCool.7 mph78%29.84 "Hg25 mi
2:00 AM59 °FCool.7 mph79%29.87 "Hg28 mi
1:00 AM60 °FCool.3 mph76%29.88 "Hg28 mi
12:00 AM61 °FCool.7 mph74%29.90 "Hg31 mi
11:00 PM
Mon, Jul 6
63 °FMild.6 mph70%29.91 "Hg25 mi
9:00 PM65 °FMild.7 mph66%29.93 "Hg28 mi
8:00 PM65 °FMild.7 mph66%29.96 "Hg28 mi
7:00 PM65 °FRain showers. Cloudy.9 mph66%29.96 "Hg22 mi
6:00 PM65 °FMild.5 mph65%29.97 "Hg18 mi
5:00 PM66 °FMild.9 mph61%30.00 "Hg19 mi
4:00 PM65 °FMild.9 mph60%30.01 "Hg19 mi
3:00 PM65 °FMild.7 mph65%30.04 "Hg19 mi
2:00 PM64 °FLight freezing rain. Cloudy.6 mph75%30.04 "Hg13 mi
1:00 PM62 °FCool.6 mph76%30.06 "Hg15 mi
12:00 PM64 °FMild.8 mph63%30.06 "Hg17 mi
10:00 AM62 °FCool.9 mph67%30.08 "Hg19 mi
Weather by CustomWeather, © 2015

See weather overviewHow to use our weather pages